TOM888 EFRO-ENAT

Flight info

Callsign TOM888
Flight time 0h 51m
Altitude 16000
Route ROTKO DCT BADIX
Aircraft B738/M-SDE2E3FGHIRWXY/LB1

Departure

Time 2026-05-08 19:55
Airport Rovaniemi Airport (EFRO)

Arrival

Time 2026-05-08 20:46
Airport Alta Airport (ENAT)
Time Latitude Longitude Altitude Speed Heading
2026-05-08 19:27 66.55829 25.82620 622 ft 0 kts 138°
2026-05-08 19:47 66.55832 25.82611 621 ft 4 kts 138°
2026-05-08 19:47 66.55852 25.82566 622 ft 4 kts 138°
2026-05-08 19:47 66.55869 25.82529 620 ft 4 kts 135°
2026-05-08 19:47 66.55882 25.82479 620 ft 4 kts 91°
2026-05-08 19:48 66.55874 25.82428 621 ft 3 kts 38°
2026-05-08 19:48 66.55872 25.82424 621 ft 1 kts 38°
2026-05-08 19:50 66.55877 25.82434 623 ft 2 kts 38°
2026-05-08 19:50 66.55909 25.82496 620 ft 10 kts 38°
2026-05-08 19:51 66.55997 25.82665 626 ft 21 kts 37°
2026-05-08 19:51 66.56110 25.82879 628 ft 20 kts 37°
2026-05-08 19:51 66.56221 25.83092 631 ft 21 kts 37°
2026-05-08 19:51 66.56337 25.83314 630 ft 22 kts 37°
2026-05-08 19:52 66.56462 25.83552 630 ft 23 kts 37°
2026-05-08 19:52 66.56584 25.83787 629 ft 22 kts 37°
2026-05-08 19:52 66.56712 25.84031 623 ft 24 kts 37°
2026-05-08 19:52 66.56857 25.84307 620 ft 29 kts 37°
2026-05-08 19:53 66.57029 25.84634 621 ft 32 kts 37°
2026-05-08 19:53 66.57213 25.84988 601 ft 35 kts 37°
2026-05-08 19:53 66.57389 25.85314 599 ft 21 kts 28°
2026-05-08 19:53 66.57505 25.85194 609 ft 20 kts 304°
2026-05-08 19:54 66.57529 25.85043 611 ft 7 kts 243°
2026-05-08 19:54 66.57495 25.84969 609 ft 11 kts 218°
2026-05-08 19:54 66.57226 25.84458 616 ft 87 kts 217°
2026-05-08 19:54 66.56556 25.83180 627 ft 152 kts 217°
2026-05-08 19:55 66.55617 25.81378 1117 ft 170 kts 217°
2026-05-08 19:55 66.54698 25.79608 2218 ft 168 kts 218°
2026-05-08 19:55 66.53720 25.77745 2899 ft 190 kts 218°
2026-05-08 19:55 66.52647 25.75716 3679 ft 196 kts 219°
2026-05-08 19:56 66.51756 25.73154 4403 ft 198 kts 251°
2026-05-08 19:56 66.51689 25.69735 4985 ft 213 kts 286°
2026-05-08 19:56 66.52479 25.66413 5556 ft 229 kts 307°
2026-05-08 19:56 66.53453 25.63219 6550 ft 231 kts 306°
2026-05-08 19:57 66.54444 25.60009 7512 ft 234 kts 311°
2026-05-08 19:57 66.55797 25.57719 8408 ft 242 kts 341°
2026-05-08 19:57 66.57526 25.57412 9039 ft 265 kts
2026-05-08 19:57 66.59330 25.58864 9810 ft 277 kts 18°
2026-05-08 19:58 66.61145 25.60661 10663 ft 285 kts 19°
2026-05-08 19:58 66.63031 25.62579 10981 ft 310 kts 19°
2026-05-08 19:58 66.65120 25.64703 11210 ft 336 kts 19°
2026-05-08 19:58 66.67352 25.66970 11671 ft 353 kts 19°
2026-05-08 19:59 66.69650 25.69299 12445 ft 358 kts 18°
2026-05-08 19:59 66.71974 25.71648 13351 ft 361 kts 18°
2026-05-08 19:59 66.74316 25.74010 14255 ft 362 kts 17°
2026-05-08 19:59 66.76626 25.76344 15389 ft 356 kts 16°
2026-05-08 20:00 66.78963 25.78694 15935 ft 367 kts 15°
2026-05-08 20:00 66.81358 25.81104 16359 ft 373 kts 15°
2026-05-08 20:00 66.83817 25.83582 16356 ft 385 kts 15°
2026-05-08 20:00 66.86287 25.86086 16362 ft 388 kts 15°
2026-05-08 20:01 66.88787 25.88634 16352 ft 386 kts 16°
2026-05-08 20:01 66.91283 25.91178 16352 ft 386 kts 15°
2026-05-08 20:01 66.93788 25.93620 16350 ft 383 kts 10°
2026-05-08 20:01 66.96369 25.94302 16365 ft 369 kts 350°
2026-05-08 20:02 66.98864 25.93032 16352 ft 363 kts 337°
2026-05-08 20:02 67.01191 25.90583 16360 ft 362 kts 333°
2026-05-08 20:02 67.03483 25.87912 16349 ft 362 kts 332°
2026-05-08 20:02 67.05742 25.85213 16352 ft 363 kts 332°
2026-05-08 20:03 67.08029 25.82474 16356 ft 363 kts 332°
2026-05-08 20:03 67.10322 25.79738 16355 ft 363 kts 332°
2026-05-08 20:03 67.12617 25.77014 16387 ft 363 kts 332°
2026-05-08 20:03 67.14918 25.74293 16362 ft 365 kts 332°
2026-05-08 20:04 67.17233 25.71561 16357 ft 366 kts 332°
2026-05-08 20:04 67.19553 25.68825 16356 ft 367 kts 332°
2026-05-08 20:04 67.21877 25.66084 16357 ft 367 kts 332°
2026-05-08 20:04 67.24171 25.63374 16354 ft 368 kts 332°
2026-05-08 20:05 67.26496 25.60624 16358 ft 367 kts 332°
2026-05-08 20:05 67.28817 25.57874 16357 ft 367 kts 332°
2026-05-08 20:05 67.31139 25.55116 16354 ft 367 kts 332°
2026-05-08 20:05 67.33458 25.52356 16350 ft 367 kts 332°
2026-05-08 20:06 67.35772 25.49597 16359 ft 365 kts 332°
2026-05-08 20:06 67.38075 25.46845 16351 ft 364 kts 332°
2026-05-08 20:06 67.40372 25.44094 16348 ft 363 kts 332°
2026-05-08 20:06 67.42661 25.41346 16349 ft 362 kts 332°
2026-05-08 20:07 67.44948 25.38595 16352 ft 362 kts 332°
2026-05-08 20:07 67.47203 25.35876 16354 ft 362 kts 332°
2026-05-08 20:07 67.49489 25.33113 16346 ft 362 kts 332°
2026-05-08 20:07 67.51775 25.30345 16327 ft 362 kts 332°
2026-05-08 20:08 67.54061 25.27570 16326 ft 362 kts 332°
2026-05-08 20:08 67.56350 25.24788 16322 ft 363 kts 332°
2026-05-08 20:08 67.58639 25.21997 16327 ft 365 kts 332°
2026-05-08 20:08 67.60948 25.19176 16318 ft 367 kts 332°
2026-05-08 20:09 67.63271 25.16332 16310 ft 370 kts 332°
2026-05-08 20:09 67.65575 25.13506 16302 ft 371 kts 332°
2026-05-08 20:09 67.67916 25.10629 16296 ft 372 kts 332°
2026-05-08 20:09 67.70256 25.07748 16292 ft 372 kts 332°
2026-05-08 20:10 67.72595 25.04861 16290 ft 371 kts 332°
2026-05-08 20:10 67.74928 25.01978 16292 ft 369 kts 332°
2026-05-08 20:10 67.77244 24.99108 16287 ft 366 kts 331°
2026-05-08 20:10 67.79545 24.96250 16293 ft 364 kts 331°
2026-05-08 20:11 67.81834 24.93398 16299 ft 363 kts 331°
2026-05-08 20:11 67.84117 24.90548 16303 ft 362 kts 331°
2026-05-08 20:11 67.86365 24.87737 16310 ft 362 kts 331°
2026-05-08 20:11 67.88646 24.84876 16317 ft 363 kts 331°
2026-05-08 20:12 67.90931 24.82004 16320 ft 364 kts 331°
2026-05-08 20:12 67.93219 24.79122 16323 ft 364 kts 331°
2026-05-08 20:12 67.95511 24.76230 16332 ft 365 kts 331°
2026-05-08 20:12 67.97802 24.73332 16341 ft 365 kts 331°
2026-05-08 20:13 68.00097 24.70424 16340 ft 365 kts 331°
2026-05-08 20:13 68.02392 24.67508 16348 ft 365 kts 331°
2026-05-08 20:13 68.04693 24.64579 16363 ft 368 kts 332°
2026-05-08 20:13 68.06982 24.61658 16369 ft 371 kts 332°
2026-05-08 20:14 68.09316 24.58672 16360 ft 373 kts 332°
2026-05-08 20:14 68.11660 24.55668 16354 ft 374 kts 332°
2026-05-08 20:14 68.14005 24.52657 16343 ft 374 kts 331°
2026-05-08 20:14 68.16347 24.49643 16358 ft 373 kts 331°
2026-05-08 20:15 68.18681 24.46634 16354 ft 371 kts 331°
2026-05-08 20:15 68.21005 24.43629 16354 ft 370 kts 331°
2026-05-08 20:15 68.23322 24.40627 16360 ft 369 kts 331°
2026-05-08 20:15 68.25603 24.37664 16356 ft 369 kts 331°
2026-05-08 20:16 68.27909 24.34661 16352 ft 368 kts 331°
2026-05-08 20:16 68.30215 24.31651 16363 ft 368 kts 331°
2026-05-08 20:16 68.32521 24.28635 16368 ft 368 kts 331°
2026-05-08 20:16 68.34829 24.25609 16361 ft 369 kts 331°
2026-05-08 20:17 68.37138 24.22575 16364 ft 369 kts 331°
2026-05-08 20:17 68.39449 24.19533 16355 ft 369 kts 331°
2026-05-08 20:17 68.41760 24.16482 16354 ft 369 kts 331°
2026-05-08 20:17 68.44038 24.13468 16358 ft 370 kts 331°
2026-05-08 20:18 68.46350 24.10403 16353 ft 370 kts 331°
2026-05-08 20:18 68.48660 24.07333 16397 ft 370 kts 331°
2026-05-08 20:18 68.50982 24.04239 16371 ft 373 kts 331°
2026-05-08 20:18 68.53318 24.01120 16370 ft 375 kts 331°
2026-05-08 20:19 68.55669 23.97974 16357 ft 376 kts 331°
2026-05-08 20:19 68.58017 23.94825 16358 ft 376 kts 331°
2026-05-08 20:19 68.60366 23.91669 16353 ft 376 kts 331°
2026-05-08 20:19 68.62711 23.88510 16349 ft 375 kts 331°
2026-05-08 20:20 68.65051 23.85351 16353 ft 374 kts 331°
2026-05-08 20:20 68.67352 23.82236 16365 ft 373 kts 331°
2026-05-08 20:20 68.69678 23.79081 16359 ft 373 kts 331°
2026-05-08 20:20 68.72003 23.75918 16353 ft 373 kts 331°
2026-05-08 20:21 68.74325 23.72752 16355 ft 372 kts 331°
2026-05-08 20:21 68.76646 23.69580 16357 ft 372 kts 331°
2026-05-08 20:21 68.78967 23.66401 16352 ft 372 kts 331°
2026-05-08 20:21 68.81288 23.63214 16353 ft 373 kts 331°
2026-05-08 20:22 68.83609 23.60020 16357 ft 373 kts 331°
2026-05-08 20:22 68.85928 23.56820 16353 ft 373 kts 331°
2026-05-08 20:22 68.88220 23.53652 16354 ft 373 kts 330°
2026-05-08 20:22 68.89791 23.51476 16358 ft 373 kts 330°
2026-05-08 20:23 68.92865 23.47207 16349 ft 373 kts 330°
2026-05-08 20:23 68.95189 23.43970 16368 ft 374 kts 331°
2026-05-08 20:23 68.97524 23.40710 16361 ft 376 kts 331°
2026-05-08 20:23 68.99867 23.37432 16358 ft 378 kts 331°
2026-05-08 20:24 69.02219 23.34133 16355 ft 379 kts 331°
2026-05-08 20:24 69.04544 23.30865 16349 ft 379 kts 331°
2026-05-08 20:24 69.06900 23.27545 16344 ft 379 kts 331°
2026-05-08 20:24 69.09254 23.24221 16357 ft 379 kts 331°
2026-05-08 20:25 69.11605 23.20892 16350 ft 378 kts 331°
2026-05-08 20:25 69.13951 23.17563 16351 ft 378 kts 330°
2026-05-08 20:25 69.16295 23.14227 16353 ft 378 kts 330°
2026-05-08 20:25 69.18637 23.10887 16355 ft 377 kts 330°
2026-05-08 20:26 69.20977 23.07541 16347 ft 377 kts 330°
2026-05-08 20:26 69.23315 23.04190 16347 ft 377 kts 330°
2026-05-08 20:26 69.25620 23.00878 16351 ft 377 kts 330°
2026-05-08 20:26 69.27953 22.97517 16345 ft 377 kts 330°
2026-05-08 20:27 69.30288 22.94146 16343 ft 377 kts 330°
2026-05-08 20:27 69.32622 22.90769 16346 ft 377 kts 330°
2026-05-08 20:27 69.34954 22.87386 16361 ft 377 kts 330°
2026-05-08 20:27 69.37286 22.83994 16356 ft 377 kts 330°
2026-05-08 20:28 69.39617 22.80595 16362 ft 377 kts 330°
2026-05-08 20:28 69.41957 22.77174 16353 ft 380 kts 330°
2026-05-08 20:28 69.44310 22.73725 16357 ft 382 kts 330°
2026-05-08 20:28 69.46646 22.70294 16343 ft 384 kts 330°
2026-05-08 20:29 69.49021 22.66797 16343 ft 384 kts 330°
2026-05-08 20:29 69.51397 22.63290 16347 ft 384 kts 330°
2026-05-08 20:29 69.53760 22.59795 16332 ft 376 kts 330°
2026-05-08 20:29 69.56023 22.56446 16325 ft 358 kts 330°
2026-05-08 20:30 69.58210 22.53199 16024 ft 351 kts 330°
2026-05-08 20:30 69.60359 22.49995 15623 ft 346 kts 330°
2026-05-08 20:30 69.62475 22.46831 15209 ft 341 kts 330°
2026-05-08 20:30 69.64541 22.43736 14771 ft 338 kts 330°
2026-05-08 20:31 69.66615 22.40620 14325 ft 335 kts 330°
2026-05-08 20:31 69.68671 22.37526 13860 ft 332 kts 330°
2026-05-08 20:31 69.70713 22.34452 13411 ft 330 kts 330°
2026-05-08 20:31 69.72738 22.31395 12989 ft 329 kts 330°
2026-05-08 20:32 69.74767 22.28322 12570 ft 330 kts 330°
2026-05-08 20:32 69.76798 22.25353 12412 ft 327 kts 336°
2026-05-08 20:32 69.79028 22.24174 12150 ft 330 kts
2026-05-08 20:32 69.81267 22.25529 11758 ft 329 kts 17°
2026-05-08 20:33 69.83410 22.27761 11320 ft 327 kts 19°
2026-05-08 20:33 69.85506 22.30045 10901 ft 325 kts 19°
2026-05-08 20:33 69.87618 22.32351 10485 ft 323 kts 19°
2026-05-08 20:33 69.89711 22.34617 10249 ft 315 kts 19°
2026-05-08 20:34 69.91720 22.36776 10234 ft 301 kts 19°
2026-05-08 20:34 69.93646 22.38833 10169 ft 290 kts 19°
2026-05-08 20:34 69.97308 22.42733 9921 ft 273 kts 19°
2026-05-08 20:35 69.99087 22.44626 9643 ft 271 kts 19°
2026-05-08 20:35 70.00819 22.46476 9503 ft 265 kts 19°
2026-05-08 20:35 70.02526 22.48302 9382 ft 257 kts 19°
2026-05-08 20:35 70.04179 22.50095 9322 ft 249 kts 22°
2026-05-08 20:36 70.05533 22.53054 9200 ft 243 kts 55°
2026-05-08 20:36 70.06195 22.57519 9027 ft 238 kts 78°
2026-05-08 20:36 70.06459 22.62298 8758 ft 238 kts 83°
2026-05-08 20:36 70.06657 22.67099 8512 ft 237 kts 83°
2026-05-08 20:37 70.06859 22.71872 8287 ft 235 kts 83°
2026-05-08 20:37 70.07056 22.76352 8246 ft 223 kts 83°
2026-05-08 20:37 70.07251 22.80726 8173 ft 210 kts 83°
2026-05-08 20:37 70.07437 22.84841 8080 ft 197 kts 83°
2026-05-08 20:38 70.07747 22.88682 7785 ft 195 kts 60°
2026-05-08 20:38 70.08656 22.91598 7421 ft 195 kts 39°
2026-05-08 20:38 70.09707 22.94151 7046 ft 198 kts 38°
2026-05-08 20:38 70.10779 22.96720 6666 ft 200 kts 38°
2026-05-08 20:39 70.11860 22.99301 6262 ft 201 kts 36°
2026-05-08 20:39 70.13128 23.00898 5836 ft 201 kts
2026-05-08 20:39 70.14471 23.00209 5440 ft 198 kts 329°
2026-05-08 20:39 70.15369 22.97334 5058 ft 195 kts 291°
2026-05-08 20:40 70.15456 22.93477 4747 ft 188 kts 251°
2026-05-08 20:40 70.14713 22.90572 4589 ft 176 kts 210°
2026-05-08 20:40 70.13567 22.89891 4454 ft 169 kts 176°
2026-05-08 20:40 70.12395 22.90280 4343 ft 171 kts 173°
2026-05-08 20:41 70.11201 22.90732 4221 ft 175 kts 173°
2026-05-08 20:41 70.09990 22.91195 4106 ft 175 kts 173°
2026-05-08 20:41 70.08793 22.91652 4015 ft 173 kts 173°
2026-05-08 20:41 70.07624 22.92103 4006 ft 171 kts 171°
2026-05-08 20:42 70.06580 22.93633 3986 ft 173 kts 127°
2026-05-08 20:42 70.06003 22.96812 3825 ft 183 kts 120°
2026-05-08 20:42 70.05356 23.00024 3528 ft 183 kts 123°
2026-05-08 20:42 70.04686 23.03208 3210 ft 183 kts 123°
2026-05-08 20:43 70.04018 23.06389 2847 ft 183 kts 122°
2026-05-08 20:43 70.03352 23.09573 2472 ft 183 kts 122°
2026-05-08 20:43 70.02690 23.12737 2125 ft 179 kts 121°
2026-05-08 20:43 70.02057 23.15769 1843 ft 171 kts 121°
2026-05-08 20:44 70.01460 23.18633 1589 ft 163 kts 121°
2026-05-08 20:44 70.00882 23.21406 1344 ft 156 kts 121°
2026-05-08 20:44 70.00330 23.24055 1136 ft 149 kts 122°
2026-05-08 20:44 69.99791 23.26645 847 ft 148 kts 121°
2026-05-08 20:45 69.99255 23.29195 630 ft 148 kts 121°
2026-05-08 20:45 69.98904 23.30890 451 ft 147 kts 120°
2026-05-08 20:45 69.98195 23.34329 100 ft 148 kts 119°
2026-05-08 20:45 69.97693 23.36748 34 ft 118 kts 121°
2026-05-08 20:46 69.97383 23.38244 32 ft 57 kts 121°
2026-05-08 20:46 69.97253 23.38798 36 ft 24 kts 139°
2026-05-08 20:46 69.97249 23.38931 37 ft 7 kts 349°
2026-05-08 20:46 69.97295 23.38690 35 ft 22 kts 296°
2026-05-08 20:47 69.97398 23.38174 35 ft 35 kts 301°
2026-05-08 20:47 69.97541 23.37486 35 ft 42 kts 301°
2026-05-08 20:47 69.97691 23.36759 35 ft 39 kts 301°
2026-05-08 20:47 69.97808 23.36190 31 ft 32 kts 301°
2026-05-08 20:48 69.97917 23.35662 34 ft 30 kts 301°
2026-05-08 20:48 69.97925 23.35337 34 ft 11 kts 217°
2026-05-08 20:48 69.97881 23.35208 34 ft 8 kts 249°
2026-05-08 20:48 69.97869 23.35052 34 ft 8 kts 271°
2026-05-08 20:49 69.97871 23.34905 34 ft 8 kts 235°
2026-05-08 20:49 69.97843 23.34845 32 ft 4 kts 211°
2026-05-08 20:49 69.97822 23.34809 34 ft 1 kts 211°
2026-05-08 20:49 69.97821 23.34808 34 ft 0 kts 211°